User: anonymous   Login
Location: DARK SKY Beskydy - Park tmavé oblohy, www.darkskybeskydy.cz
(49.4926°N, 18.5016°E)
Time: 09:34:47
(UTC+01:00)
Language:

Tiros 1 - Orbit

View from above orbital plane
View from above orbital plane
View from above satellite
View from above satellite

Ground track
Ground track

The orbit data is extracted from the following two-line orbital elements,

1 00029U 60002B   24055.76019538  .00001310  00000-0  21740-3 0  9996
2 00029  48.3793  65.7411 0023849 242.2540 117.5953 14.76028898417406
Epoch (UTC): 24 February 2024 18:14:40
Eccentricity: 0.0023849
inclination: 48.3793°
perigee height: 625 km
apogee height: 658 km
right ascension of ascending node: 65.7411°
argument of perigee: 242.2540°
revolutions per day: 14.76028898
mean anomaly at epoch: 117.5953°
orbit number at epoch: 41740

The dashed part of the orbit path shows where the satellite is in the earth's shadow,  

DLR